Date String (YYYY-MM-DD hh:mm:ss) UTC,Instrument flags,Ambient pressure (hPa),Sample flow (lpm),Bypass flow (lpm),Sample temperature (°C),Ambient temperature (°C),ASC tube jacket temperature (°C),LED temperature (°C),Box temperature (°C),Sample RH (%),Span deviation,Mass concentration (μg/m³),Mass concentration (μg/m³),Mass concentration (μg/m³)
DateTimeUTC,F1_M11,P_M11,Q1_M11,Q2_M11,T1_M11,T2_M11,T3_M11,T4_M11,T5_M11,U1_M11,ZSPAN_M11,X0_M11,X2_M11,X1_M11
2023-02-11 05:00:00,,0829.1,5.00,0.00,22.5,20.6,00.0,31.4,24.1,09.3,0000.0,0016.05,0005.46,0004.28
2023-02-11 05:01:00,,0829.1,5.01,0.00,22.5,20.5,00.0,31.4,24.1,09.4,0000.0,0016.22,0005.48,0004.34
2023-02-11 05:02:00,,0829.1,5.00,0.00,22.4,20.4,00.0,31.4,24.0,09.4,0000.0,0016.72,0005.55,0004.37
2023-02-11 05:03:00,,0829.1,5.00,0.00,22.3,20.2,00.0,31.4,23.9,09.4,0000.0,0017.17,0005.63,0004.41
2023-02-11 05:04:00,,0829.0,4.98,0.00,22.3,20.1,00.0,31.3,23.8,09.5,0000.0,0017.64,0005.64,0004.45
2023-02-11 05:05:00,,0829.0,5.02,0.00,22.2,20.3,00.0,31.3,23.8,09.5,0000.0,0017.00,0005.67,0004.47
2023-02-11 05:06:00,,0829.0,4.94,0.00,22.3,21.4,00.0,31.2,24.1,09.3,0000.0,0017.63,0005.69,0004.48
2023-02-11 05:07:00,,0829.0,4.98,0.00,22.4,22.6,00.0,31.2,24.4,09.3,0000.0,0018.09,0005.69,0004.46
2023-02-11 05:08:00,,0829.0,4.97,0.00,22.5,22.8,00.0,31.2,24.5,09.3,0000.0,0018.14,0005.64,0004.44
2023-02-11 05:09:00,,0828.9,4.96,0.00,22.5,22.2,00.0,31.3,24.4,09.3,0000.0,0017.87,0005.54,0004.41
2023-02-11 05:10:00,,0828.9,4.89,0.00,22.5,21.8,00.0,31.3,24.4,09.3,0000.0,0018.17,0005.51,0004.38
2023-02-11 05:11:00,,0828.9,4.97,0.00,22.5,21.5,00.0,31.3,24.3,09.3,0000.0,0019.05,0005.46,0004.32
2023-02-11 05:12:00,,0828.9,5.02,0.00,22.5,21.2,00.0,31.3,24.2,09.2,0000.0,0019.65,0005.46,0004.29
2023-02-11 05:13:00,,0828.9,5.01,0.00,22.5,21.0,00.0,31.3,24.1,09.2,0000.0,0020.25,0005.49,0004.29
2023-02-11 05:14:00,,0828.9,5.00,0.00,22.4,20.7,00.0,31.3,24.0,09.2,0000.0,0020.68,0005.51,0004.29
2023-02-11 05:15:00,,0828.9,5.01,0.00,22.3,20.5,00.0,31.3,23.9,09.2,0000.0,0020.41,0005.53,0004.28
2023-02-11 05:16:00,,0828.9,5.00,0.00,22.3,20.4,00.0,31.3,23.9,09.2,0000.0,0019.80,0005.53,0004.28
2023-02-11 05:17:00,,0828.9,5.01,0.00,22.2,20.3,00.0,31.3,23.9,09.2,0000.0,0019.91,0005.54,0004.28
2023-02-11 05:18:00,,0829.3,4.99,0.00,22.2,20.2,00.0,31.3,23.8,09.2,0000.0,0019.33,0005.56,0004.30
2023-02-11 05:19:00,,0829.2,5.02,0.00,22.2,20.2,00.0,31.2,23.8,09.3,0000.0,0019.32,0005.57,0004.32
2023-02-11 05:20:00,,0829.3,5.02,0.00,22.1,20.2,00.0,31.2,23.8,09.4,0000.0,0020.06,0005.54,0004.33
2023-02-11 05:21:00,,0829.2,5.02,0.00,22.2,21.0,00.0,31.2,24.0,09.3,0000.0,0019.70,0005.52,0004.33
2023-02-11 05:22:00,,0829.0,5.01,0.00,22.3,22.3,00.0,31.1,24.3,09.2,0000.0,0019.13,0005.48,0004.31
2023-02-11 05:23:00,,0829.1,5.05,0.00,22.4,23.0,00.0,31.2,24.5,09.1,0000.0,0017.99,0005.47,0004.30
2023-02-11 05:24:00,,0829.0,4.99,0.00,22.5,22.6,00.0,31.2,24.5,09.1,0000.0,0017.68,0005.46,0004.31
2023-02-11 05:25:00,,0828.7,4.98,0.00,22.5,22.2,00.0,31.3,24.5,09.2,0000.0,0016.63,0005.45,0004.32
2023-02-11 05:26:00,,0828.7,5.10,0.00,22.5,21.8,00.0,31.3,24.4,09.2,0000.0,0016.42,0005.46,0004.33
2023-02-11 05:27:00,,0828.6,4.95,0.00,22.5,21.5,00.0,31.3,24.3,09.1,0000.0,0016.04,0005.44,0004.33
2023-02-11 05:28:00,,0828.9,4.99,0.00,22.5,21.2,00.0,31.3,24.3,09.0,0000.0,0015.81,0005.40,0004.32
2023-02-11 05:29:00,,0828.8,5.00,0.00,22.5,21.1,00.0,31.3,24.3,09.2,0000.0,0016.31,0005.42,0004.33
2023-02-11 05:30:00,,0828.8,5.00,0.00,22.5,21.0,00.0,31.3,24.3,09.2,0000.0,0016.87,0005.41,0004.34
2023-02-11 05:31:00,,0828.7,5.00,0.00,22.5,20.8,00.0,31.3,24.2,09.2,0000.0,0016.14,0005.43,0004.35
2023-02-11 05:32:00,,0828.7,5.01,0.00,22.4,20.7,00.0,31.3,24.1,09.2,0000.0,0016.15,0005.49,0004.35
2023-02-11 05:33:00,,0828.9,4.98,0.00,22.4,20.6,00.0,31.3,24.0,09.2,0000.0,0015.90,0005.54,0004.38
2023-02-11 05:34:00,,0828.9,5.01,0.00,22.4,20.5,00.0,31.3,24.0,09.2,0000.0,0016.54,0005.55,0004.40
2023-02-11 05:35:00,,0828.6,5.01,0.00,22.3,20.4,00.0,31.3,24.0,09.2,0000.0,0016.35,0005.57,0004.41
2023-02-11 05:36:00,,0828.7,4.97,0.00,22.3,20.4,00.0,31.3,24.0,09.3,0000.0,0016.02,0005.55,0004.41
2023-02-11 05:37:00,,0828.6,5.01,0.00,22.3,20.4,00.0,31.2,24.0,09.3,0000.0,0016.21,0005.56,0004.40
2023-02-11 05:38:00,,0828.9,5.01,0.00,22.3,20.4,00.0,31.2,24.0,09.3,0000.0,0017.41,0005.59,0004.42
2023-02-11 05:39:00,,0829.1,4.99,0.00,22.3,20.4,00.0,31.2,24.0,09.3,0000.0,0017.21,0005.61,0004.44
2023-02-11 05:40:00,,0829.0,5.01,0.00,22.2,20.5,00.0,31.2,24.0,09.3,0000.0,0017.09,0005.61,0004.44
2023-02-11 05:41:00,,0828.7,5.01,0.00,22.3,21.4,00.0,31.1,24.2,09.3,0000.0,0016.21,0005.64,0004.44
2023-02-11 05:42:00,,0828.8,4.99,0.00,22.4,22.6,00.0,31.1,24.5,09.3,0000.0,0016.15,0005.62,0004.43
2023-02-11 05:43:00,,0828.7,5.03,0.00,22.5,23.0,00.0,31.2,24.6,09.2,0000.0,0016.37,0005.57,0004.42
2023-02-11 05:44:00,,0828.7,5.01,0.00,22.6,22.6,00.0,31.2,24.6,09.2,0000.0,0015.98,0005.53,0004.41
2023-02-11 05:45:00,,0828.7,5.02,0.00,22.6,22.2,00.0,31.3,24.5,09.2,0000.0,0015.23,0005.53,0004.42
2023-02-11 05:46:00,,0828.7,4.99,0.00,22.6,21.9,00.0,31.3,24.5,09.2,0000.0,0016.44,0005.56,0004.43
2023-02-11 05:47:00,,0828.7,4.97,0.00,22.6,21.7,00.0,31.3,24.4,09.2,0000.0,0017.07,0005.62,0004.42
2023-02-11 05:48:00,,0828.7,5.00,0.00,22.6,21.5,00.0,31.3,24.4,09.2,0000.0,0017.28,0005.62,0004.42
2023-02-11 05:49:00,,0829.1,4.98,0.00,22.6,21.3,00.0,31.3,24.4,09.2,0000.0,0017.24,0005.61,0004.43
2023-02-11 05:50:00,,0829.1,5.01,0.00,22.6,21.2,00.0,31.3,24.3,09.2,0000.0,0017.86,0005.58,0004.43
2023-02-11 05:51:00,,0829.0,5.00,0.00,22.6,21.1,00.0,31.4,24.3,09.2,0000.0,0018.48,0005.56,0004.42
2023-02-11 05:52:00,,0828.8,5.02,0.00,22.5,21.1,00.0,31.4,24.3,09.3,0000.0,0019.19,0005.56,0004.42
2023-02-11 05:53:00,,0828.9,4.99,0.00,22.5,21.0,00.0,31.4,24.3,09.3,0000.0,0020.31,0005.60,0004.42
2023-02-11 05:54:00,,0828.8,4.99,0.00,22.5,21.0,00.0,31.4,24.3,09.3,0000.0,0020.07,0005.56,0004.41
2023-02-11 05:55:00,,0828.7,4.98,0.00,22.5,21.0,00.0,31.4,24.3,09.3,0000.0,0020.44,0005.57,0004.41
2023-02-11 05:56:00,,0828.7,5.02,0.00,22.5,20.9,00.0,31.4,24.3,09.3,0000.0,0020.46,0005.58,0004.40
2023-02-11 05:57:00,,0828.7,4.99,0.00,22.5,20.8,00.0,31.3,24.2,09.3,0000.0,0019.43,0005.54,0004.40
2023-02-11 05:58:00,,0828.8,5.00,0.00,22.5,20.7,00.0,31.3,24.2,09.3,0000.0,0019.48,0005.53,0004.41
2023-02-11 05:59:00,,0829.1,5.00,0.00,22.4,20.6,00.0,31.3,24.1,09.3,0000.0,0019.86,0005.57,0004.41
